www.pogodaiklimat.ru

Погода и климат >> Архив погоды >> Сенегал >> Kolda


ПОГОДА в Kolda

  • Прогноз погоды в Kolda
  • Монитор погоды в Kolda
  • Климат города

АРХИВ ПОГОДЫ в Kolda

Время (UTC), дата Ветер
(напр.,м/с)
 
Видим.   Явления Облачность Т
(С)
Тd
(С)
f
(%)
Тe
(С)
Тes
(С)
Комфортность P
(гПа)
Po
(гПа)
Тmin
(С)
Tmax
(С)
R
(мм)
R24
(мм)
S
(см)
06 13.07 ЮЗ 1 8000 м 5/5 600 м
[Sc]
+26.0 +25.2 95 +37 +37 очень
душно
1013.0 1011.9 +25.5
09 13.07 С 2 10 км 6/6 600 м
[Sc]
+27.8 +25.6 88 +41 +44 опасность
перегрева
1012.8 1011.7
12 13.07 С 1 10 км 8/8 600 м
[Cu med, cong]
+32.3 +25.3 67 +47 +52 опасность
перегрева
1013.7 1012.6
15 13.07 штиль 0 10 км 9/9 600 м
[Cu med, cong]
+34.0 +23.3 54 +45 +47 опасность
перегрева
1011.5 1011.0
18 13.07 С 2 10 км в посл. час гроза 10/10 600 м
[Cu med, cong]
+26.0 +23.1 84 +35 +35 очень
душно
1011.2 1010.1 +35.0
21 13.07 штиль 0 8000 м ясно +25.3 +23.6 90 +34 +34 очень
душно
1011.8 1010.7
00 14.07 штиль 0 8000 м 4/4 600 м
[Sc]
+25.0 +24.3 96 +35 +35 очень
душно
1013.8 1012.7
03 14.07 С 1 8000 м 6/6 600 м
[Sc]
+24.6 +24.0 96 +34 +34 очень
душно
1012.9 1011.8
06 14.07 С 1 8000 м 6/6 600 м
[Sc]
+25.0 +23.3 90 +33 +33 очень
душно
1013.0 1011.9 +24.5
09 14.07 СВ 1 10 км 10/10 600 м
[Sc]
+26.0 +24.6 92 +37 +37 очень
душно
1013.5 1012.4
12 14.07 Ю 1 10 км 6/3 600 м
[Cu hum Ci sp]
+31.5 +25.2 69 +45 +61 опасность
перегрева
1013.9 1012.8
15 14.07 Ю 1 10 км 8/6 480 м
[Cu med, cong]
+34.8 +25.5 59 +50 +56 опасность
перегрева
1012.1 1011.0
18 14.07 штиль 0 10 км 6/5 480 м
[Cu med, cong Ci fib]
+34.1 +24.6 58 +47 +48 опасность
перегрева
1011.2 1010.1 +35.5
21 14.07 ЮЗ 1 8000 м 5/0
[Ac trans]
+30.8 +25.5 73 +45 +45 опасность
перегрева
1012.8 1011.7
00 15.07 ЮЗ 1 8000 м зарница 3/3 900 м
[Cb cap]
+27.8 +24.8 84 +40 +40 очень
душно
1014.5 1013.4
03 15.07 ЮЗ 3 8000 м 9/9 900 м
[Sc]
+27.2 +25.2 89 +39 +39 очень
душно
1012.6 1011.5
06 15.07 ЮЗ 1 8000 м 6/6 900 м
[Sc]
+26.5 +25.4 94 +39 +39 очень
душно
1012.3 1011.2 +26.0
09 15.07 штиль 0 10 км в посл. час дождь 6/6 480 м
[Sc]
+27.4 +26.0 92 +41 +44 опасность
перегрева
1014.8 1013.7
12 15.07 З 2 10 км {дождь} 5/5 480 м
[Cu hum]
+30.8 +25.3 73 +45 +56 опасность
перегрева
1013.5 1012.4 0.5
15 15.07 Ю 1 10 км 8/8 600 м
[Cu med, cong]
+33.0 +24.6 61 +46 +50 опасность
перегрева
1011.2 1010.1
18 15.07 ЮЗ 2 10 км 8/8 600 м
[Cu med, cong]
+33.5 +24.4 59 +46 +47 опасность
перегрева
1010.0 1008.9 +35.0 0.5
21 15.07 Ю 2 8000 м ясно +30.0 +23.0 66 +40 +40 очень
душно
1011.3 1010.2
00 16.07 Ю 2 8000 м ясно +28.5 +26.4 88 +43 +43 опасность
перегрева
1012.9 1011.8
03 16.07 ЮЗ 1 8000 м ясно +27.0 +24.3 85 +38 +38 очень
душно
1012.0 1010.9
06 16.07 СВ 1 8000 м 5/0
[Ci sp]
+26.2 +25.2 94 +38 +38 очень
душно
1011.2 1010.1 +25.6 0.5
09 16.07 С 2 10 км 8/8 600 м
[Sc]
+27.6 +25.3 87 +40 +42 очень
душно
1012.0 1010.9
12 16.07 С 2 10 км 9/9 600 м
[Cu med, cong]
+32.0 +24.4 64 +44 +47 опасность
перегрева
1011.7 1010.6
15 16.07 ЮЗ 2 10 км 6/6 600 м
[Cu med, cong]
+34.5 +23.9 54 +46 +53 опасность
перегрева
1010.1 1009.0
18 16.07 ЮЗ 2 10 км 6/6 600 м
[Sc diur, vesp]
+33.2 +23.7 58 +45 +46 опасность
перегрева
1009.1 1008.0 +35.1
21 16.07 ЮЗ 2 8000 м 1/1 600 м
[Sc]
+30.2 +24.1 70 +42 +42 опасность
перегрева
1010.6 1009.5
00 17.07 ЮЗ 2 8000 м ясно +28.0 +23.8 78 +39 +39 очень
душно
1012.6 1011.5
03 17.07 ЮЗ 1 8000 м ясно +26.5 +24.4 88 +37 +37 очень
душно
1011.5 1010.4
06 17.07 ЮЗ 1 8000 м 5/0
[Ac As]
+15.9 +24.2 100 +17 +17 1011.3 1010.2 +25.4
09 17.07 ЮЗ 1 10 км 8/4 600 м
[Sc Ac trans]
+27.4 +25.1 87 +39 +42 очень
душно
1012.4 1011.3
12 17.07 ЮЗ 2 10 км 8/8 600 м
[Sc]
+31.1 +24.9 70 +45 +49 опасность
перегрева
1012.4 1011.3
15 17.07 ЮЗ 1 10 км слабый дождь 10/4 600 м
[Sc Ac As]
+27.5 +26.1 92 +41 +45 опасность
перегрева
1011.0 1009.9
18 17.07 ЮЗ 1 10 км {гроза, дождь} 10/0
[Ac As]
+26.5 +25.8 96 +39 +40 очень
душно
1011.1 1010.0 +33.0 13
21 17.07 штиль 0 8000 м 10/0
[Ac As]
+27.0 +26.3 96 +41 +41 опасность
перегрева
1011.0 1009.8
00 18.07 штиль 0 8000 м 9/0
[Ac As]
+26.0 +25.3 96 +38 +38 очень
душно
1012.4 1011.4
03 18.07 З 1 8000 м ясно +25.7 +25.1 96 +37 +37 очень
душно
1012.0 1010.9
06 18.07 штиль 0 8000 м 9/0
[Ac As]
+25.3 +24.9 98 +36 +36 очень
душно
1012.7 1011.6 +24.7 13
09 18.07 штиль 0 10 км 8/5 600 м
[Sc Ac trans]
+27.3 +25.8 92 +41 +41 опасность
перегрева
1013.8 1012.7
12 18.07 ЮЗ 1 10 км 6/6 600 м
[Sc]
+30.8 +24.9 71 +44 +54 опасность
перегрева
1013.5 1012.4
15 18.07 З 2 10 км 8/8 600 м
[Cu med, cong]
+31.6 +25.2 69 +46 +49 опасность
перегрева
1011.4 1010.3
18 18.07 С 1 10 км слабый дождь {гроза} 9/4 600 м
[Sc Ac As]
+28.3 +26.4 89 +43 +44 опасность
перегрева
1011.7 1010.6 +34.0 0.9
21 18.07 Ю 1 8000 м {дождь} 6/6 600 м
[Sc]
+25.8 +25.4 98 +38 +38 очень
душно
1012.8 1011.7
06 19.07 штиль 0 8000 м 9/9 900 м
[Sc]
+25.2 +24.9 98 +36 +36 очень
душно
1012.9 1011.8 +24.7 7
09 19.07 штиль 0 10 км гроза, ливневой дождь 10/8 600 м
[Cb cap Ac As]
+22.6 +22.3 98 +30 +31 очень
душно
1014.2 1013.1
12 19.07 Ю 1 10 км {гроза, дождь} 8/3 600 м
[Sc Ac trans]
+25.5 +23.6 89 +35 +44 очень
душно
1013.4 1012.3 20
15 19.07 ЮЗ 1 10 км слабый дождь 9/9 600 м
[Cu med, cong]
+29.7 +25.5 78 +44 +46 опасность
перегрева
1012.0 1010.9
18 19.07 ЮЗ 2 10 км {дождь} 9/4 600 м
[Sc Ac As]
+28.4 +24.3 78 +40 +40 очень
душно
1011.9 1010.8 +30.0 20
21 19.07 ЮЗ 2 8000 м 9/3 480 м
[Sc Ac As]
+26.8 +23.8 84 +37 +37 очень
душно
1013.0 1011.9

 

Местоположение метеостанции Kolda (Сенегал): широта 12.88 долгота -14.96 высота над уровнем моря 10 м.

В архиве по умолчанию представлена погода в Kolda за последнюю неделю. Архивные данные за месяц целиком и за предыдущие месяцы, начиная с января 2011 года, Вы можете получить, выбрав интересующий диапазон дат из раскрывающегося списка и нажав кнопку "Ввод!".


*Определитесь, кто Вы:
робот инопланетянин человек

Внимание! Время в таблицах - всемирное. Для получения местного времени необходимо прибавить поправку, которая в Kolda равна 0 ч.

Смотрите также архив погоды в соседних городах и на ближайших метеорологических станциях:

Погода в Georgetown (Гамбия) (75 км)
Погода в Bafata (Гвинея-Биссау) (85 км)
Погода в Basse (Гамбия) (89 км)
Погода в Jenoi (Гамбия) (94 км)
Погода в Kauur (Гамбия) (100 км)
Погода в Sapu (Гамбия) (130 км)
Погода в Bissau (Гвинея-Биссау) (132 км)
Погода в Sibanor (Гамбия) (140 км)
Погода в Kerewan (Гамбия) (140 км)
Погода в Ziguinchor (Сенегал) (146 км)

Пояснения к столбцам:

Ветер - указаны скорость ветра в м/с - средняя за 10 мин, порывы в срок и между сроками (в фигурных скобках) и направление, откуда дует ветер: С - северный, СВ - северо-восточный, В - восточный, ЮВ - юго-восточный, Ю - южный, ЮЗ - юго-западный, З - западный, СЗ - северо-западный.
Видимость - горизонтальная дальность видимости в метрах или километрах. При видимости от 1 до 10 км при отсутствии осадков обычно наблюдается дымка, при ухудшении видимости до 1 км и менее - туман. В сухую погоду видимость может ухудшаться дымом, пылью или мглою.
Явления - указаны атмосферные явления, наблюдавшиеся в срок или в последний час перед сроком; фигурными скобками обозначены явления, наблюдавшиеся между сроками (за 1-3 часа до срока); квадратными скобками обозначены град или гололедные отложения с указанием их диаметра в мм.
Облачность - указаны через наклонную черту общая и нижняя облачность в баллах и высота нижней границы облаков в метрах; квадратными скобками обозначены формы облаков: Ci - перистые, Cs - перисто-слоистые, Cc - перисто-кучевые, Ac - высококучевые, As - высокослоистые, Sc - слоисто-кучевые, Ns - слоисто-дождевые, Cu - кучевые, Cb - кучево-дождевые. Подробнее классификацию облаков см. в Атласе облаков (PDF).
T - Температура воздуха - температура, измеренная на высоте 2 м над землей.
Td - Температура точки росы - температура, при понижении до которой содержащийся в воздухе водяной пар достигнет насыщения.
f - Относительная влажность воздуха - влажноcть воздуха, измеренная на высоте 2 м над землей.
Te - Эффективная температура - температура, которую ощущает одетый по сезону человек в тени. Характеристика душности погоды. При расчете учитывается влияние влажности воздуха и скорости ветра на теплоощущения человека.
Tes - Эффективная температура на солнце - температура, которую ощущает человек, с поправкой на солнечный нагрев. Характеристика знойности погоды. Зависит от высоты солнца над горизонтом, облачности и скорости ветра. Ночью, в пасмурную погоду, а также при ветре 12 м/с и более поправка равна нулю.
P - Атмосферное давление - приведенное к уровню моря атмосферное давление.
Po - Атмосферное давление - измеренное на уровне метеостанции атмосферное давление.
Tmin - Минимальная температура - минимум температуры воздуха на высоте 2 м над землей.
Tmax - Максимальная температура - максимум температуры воздуха на высоте 2 м над землей.
R - Количество осадков - Количество выпавших осадков за период времени, мм. При наведении курсора мыши на число - период времени, за который выпало указанное количество осадков.
R24 - Количество осадков - Количество выпавших осадков за 24 часа, мм.
S - Снежный покров - Высота снежного покрова, см. При наведении курсора мыши на число - состояние снежного покрова и степень покрытия местности в баллах.